{"data":{"norad_id":58547,"intl_designator":"2023-192S","name":"STARLINK-31063","alt_names":[],"object_type":"PAYLOAD","status":"ACTIVE","operator":null,"country":"US","launch_date":"2023-12-08","launch_site_code":"AFWTR","launch_vehicle":null,"mission":null,"orbit_class":"UNKNOWN","rcs_meters":null,"size_class":null,"mass_kg":null,"dimensions":null,"purposes":["comms"],"wikipedia_slug":null,"has_3d_model":false,"image_url":null,"decayed_at":null,"tle_current":{"epoch":"2026-09-20T07:08:36.631680Z","epoch_age_seconds":164297,"freshness":"FRESH","line1":"1 58547U 23192S   26263.29764620  .00000300  00000+0  20016-4 0  9996","line2":"2 58547  53.1593 226.4957 0001264  86.4312 273.6835 15.34389350155959","mean_motion":15.3438935,"eccentricity":0.0001264,"inclination_deg":53.1593,"raan_deg":226.4957,"arg_perigee_deg":86.4312,"mean_anomaly_deg":273.6835,"bstar":2.0016e-5,"rev_number":15595,"period_min":93.848409466606,"perigee_km":461.87020822712,"apogee_km":463.59958064204,"semimajor_km":6840.8718944346,"source":"CELESTRAK","updated_at":"2026-09-21T09:00:33.915422Z"}}}